| time (UTC) | temp C | wind direction | speed KPH | gust KPH | rain 1hr cm | rain 24hr cm | rain mn cm | humidity % | barometer mb |
| 20260509225022 | 17 | 218 | 3.2 | 9.7 | 0.00 | 0.00 | 0.00 | 78 | 1026.2 |
| 20260509224501 | 17 | 219 | 3.2 | 9.7 | 0.00 | 0.00 | 0.00 | 80 | 1026.2 |
| 20260509224005 | 17 | 199 | 1.6 | 6.4 | 0.00 | 0.00 | 0.00 | 80 | 1026.0 |
| 20260509223451 | 16 | 206 | 1.6 | 8.0 | 0.00 | 0.00 | 0.00 | 81 | 1026.0 |
| 20260509222957 | 16 | 206 | 3.2 | 8.0 | 0.00 | 0.00 | 0.00 | 81 | 1026.0 |
| 20260509222451 | 16 | 229 | 3.2 | 8.0 | 0.00 | 0.00 | 0.00 | 81 | 1025.9 |
| 20260509221953 | 16 | 234 | 3.2 | 8.0 | 0.00 | 0.00 | 0.00 | 82 | 1025.8 |
| 20260509221451 | 15 | 221 | 3.2 | 8.0 | 0.00 | 0.00 | 0.00 | 83 | 1025.7 |
| 20260509220957 | 15 | 222 | 3.2 | 8.0 | 0.00 | 0.00 | 0.00 | 84 | 1025.7 |
| 20260509220456 | 15 | 251 | 3.2 | 8.0 | 0.00 | 0.00 | 0.00 | 84 | 1025.7 |
| 20260509215949 | 14 | 212 | 1.6 | 8.0 | 0.00 | 0.00 | 0.00 | 85 | 1025.7 |
| 20260509215711 | 14 | 185 | 3.2 | 8.0 | 0.00 | 0.00 | 0.00 | 85 | 1025.8 |
| 20260509214952 | 13 | 189 | 3.2 | 8.0 | 0.00 | 0.00 | 0.00 | 85 | 1025.7 |
| 20260509214450 | 13 | 224 | 3.2 | 8.0 | 0.00 | 0.00 | 0.00 | 85 | 1025.8 |
| 20260509213945 | 13 | 249 | 1.6 | 6.4 | 0.00 | 0.00 | 0.00 | 85 | 1025.8 |
| 20260509213501 | 13 | 217 | 1.6 | 6.4 | 0.00 | 0.00 | 0.00 | 85 | 1025.7 |
| 20260509212938 | 13 | 219 | 3.2 | 8.0 | 0.00 | 0.00 | 0.00 | 85 | 1025.6 |
| 20260509212433 | 13 | 248 | 3.2 | 8.0 | 0.00 | 0.00 | 0.00 | 85 | 1025.5 |
| 20260509211934 | 12 | 224 | 1.6 | 4.8 | 0.00 | 0.00 | 0.00 | 85 | 1025.4 |
| 20260509211433 | 12 | 224 | 1.6 | 6.4 | 0.00 | 0.00 | 0.00 | 85 | 1025.3 |
| 20260509211124 | 12 | 218 | 1.6 | 6.4 | 0.00 | 0.00 | 0.00 | 85 | 1025.2 |
| 20260509210408 | 12 | 244 | 1.6 | 6.4 | 0.00 | 0.00 | 0.00 | 85 | 1025.1 |
| 20260509205850 | 12 | 244 | 1.6 | 6.4 | 0.00 | 0.00 | 0.00 | 85 | 1024.9 |
| 20260509205343 | 12 | 246 | 1.6 | 6.4 | 0.00 | 0.00 | 0.00 | 85 | 1024.8 |
| 20260509204911 | 12 | 195 | 0.0 | 4.8 | 0.00 | 0.00 | 0.00 | 84 | 1024.8 |
| 20260509204601 | 12 | 195 | 0.0 | 4.8 | 0.00 | 0.00 | 0.00 | 84 | 1024.8 |
| 20260509203826 | 12 | 195 | 1.6 | 4.8 | 0.00 | 0.00 | 0.00 | 84 | 1024.7 |
| 20260509203307 | 12 | 195 | 1.6 | 4.8 | 0.00 | 0.00 | 0.00 | 84 | 1024.6 |
| 20260509202812 | 12 | 195 | 1.6 | 4.8 | 0.00 | 0.00 | 0.00 | 84 | 1024.6 |
| 20260509202307 | 12 | 195 | 1.6 | 3.2 | 0.00 | 0.00 | 0.00 | 84 | 1024.6 |
| 20260509202036 | 12 | 195 | 1.6 | 4.8 | 0.00 | 0.00 | 0.00 | 84 | 1024.5 |
| 20260509201305 | 12 | 195 | 1.6 | 8.0 | 0.00 | 0.00 | 0.00 | 84 | 1024.5 |
| 20260509201035 | 12 | 195 | 1.6 | 8.0 | 0.00 | 0.00 | 0.00 | 84 | 1024.4 |
| 20260509200316 | 12 | 195 | 3.2 | 8.0 | 0.00 | 0.00 | 0.00 | 84 | 1024.5 |
| 20260509195818 | 12 | 191 | 3.2 | 8.0 | 0.00 | 0.00 | 0.00 | 84 | 1024.5 |
| 20260509195246 | 12 | 185 | 3.2 | 6.4 | 0.00 | 0.00 | 0.00 | 84 | 1024.4 |
| 20260509195231 | 12 | 216 | 3.2 | 6.4 | 0.00 | 0.00 | 0.00 | 84 | 1024.3 |
| 20260509194223 | 12 | 198 | 1.6 | 6.4 | 0.00 | 0.00 | 0.00 | 84 | 1024.3 |
| 20260509193655 | 12 | 198 | 1.6 | 6.4 | 0.00 | 0.00 | 0.00 | 84 | 1024.3 |
| 20260509193214 | 12 | 198 | 1.6 | 6.4 | 0.00 | 0.00 | 0.00 | 84 | 1024.3 |
| 20260509192643 | 12 | 198 | 1.6 | 4.8 | 0.00 | 0.00 | 0.00 | 84 | 1024.2 |
| 20260509192137 | 12 | 198 | 1.6 | 4.8 | 0.00 | 0.00 | 0.00 | 84 | 1024.1 |
| 20260509191605 | 12 | 198 | 1.6 | 4.8 | 0.00 | 0.00 | 0.00 | 84 | 1024.1 |
| 20260509191111 | 12 | 199 | 1.6 | 6.4 | 0.00 | 0.00 | 0.00 | 84 | 1024.0 |
| 20260509190600 | 12 | 197 | 1.6 | 6.4 | 0.00 | 0.00 | 0.00 | 84 | 1024.0 |
| 20260509190323 | 12 | 166 | 3.2 | 6.4 | 0.00 | 0.00 | 0.00 | 84 | 1024.0 |
| 20260509185555 | 12 | 189 | 3.2 | 6.4 | 0.00 | 0.00 | 0.00 | 85 | 1024.0 |
| 20260509185053 | 12 | 189 | 1.6 | 6.4 | 0.00 | 0.00 | 0.00 | 85 | 1023.9 |
| 20260509184551 | 12 | 222 | 1.6 | 3.2 | 0.00 | 0.00 | 0.00 | 85 | 1023.9 |
| 20260509184039 | 12 | 223 | 1.6 | 3.2 | 0.00 | 0.00 | 0.00 | 85 | 1024.0 |
| 20260509183553 | 12 | 222 | 1.6 | 3.2 | 0.00 | 0.00 | 0.00 | 85 | 1024.0 |
| 20260509183255 | 12 | 223 | 1.6 | 6.4 | 0.00 | 0.00 | 0.00 | 85 | 1023.9 |
| 20260509182454 | 12 | 222 | 1.6 | 6.4 | 0.00 | 0.00 | 0.00 | 85 | 1023.8 |
| 20260509182006 | 12 | 223 | 0.0 | 6.4 | 0.00 | 0.00 | 0.00 | 85 | 1023.8 |
| 20260509181459 | 12 | 219 | 0.0 | 3.2 | 0.00 | 0.00 | 0.00 | 85 | 1023.8 |
| 20260509180947 | 12 | 219 | 1.6 | 4.8 | 0.00 | 0.00 | 0.00 | 85 | 1023.8 |
| 20260509180442 | 12 | 219 | 1.6 | 4.8 | 0.00 | 0.00 | 0.00 | 86 | 1023.8 |
| 20260509175945 | 12 | 219 | 1.6 | 6.4 | 0.00 | 0.00 | 0.00 | 86 | 1023.7 |
| 20260509175437 | 12 | 222 | 3.2 | 6.4 | 0.00 | 0.00 | 0.00 | 86 | 1023.7 |
| 20260509174946 | 12 | 241 | 3.2 | 4.8 | 0.00 | 0.00 | 0.00 | 86 | 1023.6 |
| 20260509174439 | 12 | 206 | 3.2 | 6.4 | 0.00 | 0.00 | 0.00 | 87 | 1023.5 |
| 20260509173940 | 12 | 206 | 3.2 | 6.4 | 0.00 | 0.00 | 0.00 | 87 | 1023.6 |
| 20260509173440 | 12 | 222 | 1.6 | 6.4 | 0.00 | 0.00 | 0.00 | 87 | 1023.5 |
| 20260509172940 | 12 | 207 | 1.6 | 6.4 | 0.00 | 0.00 | 0.00 | 87 | 1023.4 |
| 20260509172429 | 12 | 185 | 1.6 | 4.8 | 0.00 | 0.00 | 0.00 | 87 | 1023.4 |
| 20260509171939 | 12 | 185 | 0.0 | 3.2 | 0.00 | 0.00 | 0.00 | 88 | 1023.5 |
| 20260509171853 | 12 | 185 | 1.6 | 4.8 | 0.00 | 0.00 | 0.00 | 88 | 1023.5 |
| 20260509171525 | 12 | 185 | 0.0 | 3.2 | 0.00 | 0.00 | 0.00 | 88 | 1023.6 |
| 20260509170411 | 12 | 185 | 0.0 | 4.8 | 0.00 | 0.00 | 0.00 | 88 | 1023.6 |
| 20260509165904 | 12 | 185 | 0.0 | 3.2 | 0.00 | 0.00 | 0.00 | 88 | 1023.7 |
| 20260509165412 | 12 | 185 | 0.0 | 3.2 | 0.00 | 0.00 | 0.00 | 88 | 1023.7 |
| 20260509164915 | 12 | 185 | 0.0 | 3.2 | 0.00 | 0.00 | 0.00 | 89 | 1023.7 |
| 20260509164411 | 12 | 185 | 0.0 | 1.6 | 0.00 | 0.00 | 0.00 | 89 | 1023.7 |
| 20260509163914 | 12 | 185 | 0.0 | 3.2 | 0.00 | 0.00 | 0.00 | 89 | 1023.7 |
| 20260509163402 | 12 | 185 | 0.0 | 3.2 | 0.00 | 0.00 | 0.00 | 89 | 1023.6 |
| 20260509162910 | 12 | 185 | 0.0 | 6.4 | 0.00 | 0.00 | 0.00 | 89 | 1023.7 |
| 20260509162354 | 12 | 185 | 0.0 | 6.4 | 0.00 | 0.00 | 0.00 | 90 | 1023.6 |
| 20260509161847 | 12 | 185 | 1.6 | 6.4 | 0.00 | 0.00 | 0.00 | 90 | 1023.6 |
| 20260509161326 | 12 | 185 | 1.6 | 6.4 | 0.00 | 0.00 | 0.00 | 90 | 1023.5 |
| 20260509160830 | 11 | 132 | 0.0 | 4.8 | 0.00 | 0.00 | 0.00 | 90 | 1023.5 |
| 20260509160312 | 11 | 130 | 0.0 | 3.2 | 0.00 | 0.00 | 0.00 | 90 | 1023.5 |
| 20260509155816 | 11 | 130 | 0.0 | 3.2 | 0.00 | 0.00 | 0.00 | 90 | 1023.6 |
| 20260509155539 | 11 | 130 | 0.0 | 3.2 | 0.00 | 0.00 | 0.00 | 90 | 1023.7 |
| 20260509154807 | 11 | 130 | 0.0 | 3.2 | 0.00 | 0.00 | 0.00 | 90 | 1023.7 |
| 20260509154308 | 11 | 130 | 1.6 | 3.2 | 0.00 | 0.00 | 0.00 | 90 | 1023.6 |
| 20260509154027 | 11 | 130 | 0.0 | 3.2 | 0.00 | 0.00 | 0.00 | 90 | 1023.6 |
| 20260509153307 | 11 | 130 | 0.0 | 3.2 | 0.00 | 0.00 | 0.00 | 90 | 1023.7 |
| 20260509153255 | 11 | 130 | 0.0 | 3.2 | 0.00 | 0.00 | 0.00 | 90 | 1023.8 |
| 20260509152259 | 11 | 130 | 0.0 | 3.2 | 0.00 | 0.00 | 0.00 | 90 | 1023.8 |
| 20260509151757 | 11 | 130 | 0.0 | 3.2 | 0.00 | 0.00 | 0.00 | 89 | 1023.7 |
| 20260509151301 | 11 | 130 | 0.0 | 3.2 | 0.00 | 0.00 | 0.00 | 89 | 1023.8 |
| 20260509150802 | 11 | 119 | 0.0 | 1.6 | 0.00 | 0.00 | 0.00 | 89 | 1023.8 |
| 20260509150258 | 11 | 119 | 0.0 | 3.2 | 0.00 | 0.00 | 0.00 | 89 | 1024.0 |
| 20260509145756 | 11 | 119 | 0.0 | 3.2 | 0.00 | 0.00 | 0.00 | 89 | 1023.9 |
| 20260509145251 | 11 | 119 | 0.0 | 1.6 | 0.00 | 0.00 | 0.00 | 89 | 1024.0 |
| 20260509145009 | 11 | 119 | 0.0 | 1.6 | 0.00 | 0.00 | 0.00 | 89 | 1024.0 |
| 20260509144511 | 11 | 119 | 0.0 | 1.6 | 0.00 | 0.00 | 0.00 | 89 | 1024.0 |
| 20260509143957 | 11 | 119 | 0.0 | 1.6 | 0.00 | 0.00 | 0.00 | 89 | 1024.0 |
| 20260509143208 | 11 | 119 | 0.0 | 1.6 | 0.00 | 0.00 | 0.00 | 88 | 1023.9 |
| 20260509142706 | 11 | 119 | 0.0 | 1.6 | 0.00 | 0.00 | 0.00 | 88 | 1024.0 |
| 20260509142206 | 11 | 119 | 0.0 | 1.6 | 0.00 | 0.00 | 0.00 | 88 | 1024.0 |
| 20260509141713 | 11 | 119 | 0.0 | 1.6 | 0.00 | 0.00 | 0.00 | 88 | 1024.1 |
| 20260509141418 | 11 | 119 | 0.0 | 1.6 | 0.00 | 0.00 | 0.00 | 88 | 1024.1 |
| 20260509140706 | 11 | 119 | 0.0 | 1.6 | 0.00 | 0.00 | 0.00 | 88 | 1024.1 |
| 20260509140204 | 11 | 119 | 0.0 | 1.6 | 0.00 | 0.00 | 0.00 | 88 | 1024.0 |
| 20260509135704 | 11 | 119 | 0.0 | 1.6 | 0.00 | 0.00 | 0.00 | 88 | 1024.1 |
| 20260509135158 | 11 | 119 | 0.0 | 1.6 | 0.00 | 0.00 | 0.00 | 88 | 1024.1 |
| 20260509134639 | 12 | 119 | 0.0 | 1.6 | 0.00 | 0.00 | 0.00 | 88 | 1024.1 |
| 20260509134145 | 12 | 119 | 0.0 | 3.2 | 0.00 | 0.00 | 0.00 | 87 | 1024.1 |
| 20260509133612 | 12 | 119 | 0.0 | 3.2 | 0.00 | 0.00 | 0.00 | 87 | 1024.1 |
| 20260509133358 | 12 | 119 | 0.0 | 1.6 | 0.00 | 0.00 | 0.00 | 87 | 1024.1 |
| 20260509132600 | 12 | 119 | 0.0 | 1.6 | 0.00 | 0.00 | 0.00 | 87 | 1024.1 |
| 20260509132058 | 12 | 119 | 0.0 | 0.0 | 0.00 | 0.00 | 0.00 | 87 | 1024.1 |
| 20260509131559 | 12 | 119 | 0.0 | 3.2 | 0.00 | 0.00 | 0.00 | 87 | 1024.1 |
| 20260509131104 | 12 | 119 | 0.0 | 3.2 | 0.00 | 0.00 | 0.00 | 87 | 1024.1 |
| 20260509130554 | 12 | 119 | 0.0 | 3.2 | 0.00 | 0.00 | 0.00 | 87 | 1024.0 |
| 20260509130321 | 12 | 119 | 0.0 | 3.2 | 0.00 | 0.00 | 0.00 | 87 | 1024.1 |
| 20260509125546 | 12 | 119 | 0.0 | 1.6 | 0.00 | 0.00 | 0.00 | 86 | 1024.1 |
| 20260509125048 | 12 | 119 | 0.0 | 1.6 | 0.00 | 0.00 | 0.00 | 86 | 1024.1 |
| 20260509124544 | 12 | 119 | 0.0 | 1.6 | 0.00 | 0.00 | 0.00 | 86 | 1024.0 |
| 20260509124036 | 12 | 119 | 0.0 | 1.6 | 0.00 | 0.00 | 0.00 | 86 | 1024.1 |
| 20260509123533 | 12 | 119 | 0.0 | 1.6 | 0.00 | 0.00 | 0.00 | 86 | 1024.0 |
| 20260509123029 | 12 | 119 | 0.0 | 1.6 | 0.00 | 0.00 | 0.00 | 86 | 1024.1 |
| 20260509122530 | 13 | 119 | 0.0 | 1.6 | 0.00 | 0.00 | 0.00 | 85 | 1024.1 |
| 20260509122254 | 13 | 119 | 0.0 | 1.6 | 0.00 | 0.00 | 0.00 | 85 | 1024.1 |
| 20260509121757 | 13 | 119 | 0.0 | 0.0 | 0.00 | 0.00 | 0.00 | 85 | 1024.1 |
| 20260509121258 | 13 | 119 | 0.0 | 0.0 | 0.00 | 0.00 | 0.00 | 85 | 1024.1 |
| 20260509120745 | 13 | 119 | 0.0 | 0.0 | 0.00 | 0.00 | 0.00 | 85 | 1024.1 |
| 20260509120040 | 13 | 119 | 0.0 | 0.0 | 0.00 | 0.00 | 0.00 | 85 | 1024.1 |
| 20260509115519 | 13 | 119 | 0.0 | 0.0 | 0.00 | 0.00 | 0.00 | 85 | 1024.1 |
| 20260509115234 | 13 | 119 | 0.0 | 1.6 | 0.00 | 0.00 | 0.00 | 85 | 1024.1 |
| 20260509114511 | 13 | 119 | 0.0 | 1.6 | 0.00 | 0.00 | 0.00 | 85 | 1024.0 |
| 20260509114010 | 13 | 119 | 0.0 | 1.6 | 0.00 | 0.00 | 0.00 | 85 | 1024.1 |
| 20260509113505 | 13 | 119 | 0.0 | 1.6 | 0.00 | 0.00 | 0.00 | 85 | 1024.1 |
| 20260509112955 | 13 | 119 | 0.0 | 0.0 | 0.00 | 0.00 | 0.00 | 84 | 1024.1 |
| 20260509112457 | 13 | 119 | 0.0 | 1.6 | 0.00 | 0.00 | 0.00 | 84 | 1024.1 |
| 20260509112437 | 13 | 119 | 0.0 | 1.6 | 0.00 | 0.00 | 0.00 | 84 | 1024.2 |
| 20260509111450 | 13 | 119 | 0.0 | 0.0 | 0.00 | 0.00 | 0.00 | 84 | 1024.2 |
| 20260509110950 | 13 | 119 | 0.0 | 1.6 | 0.00 | 0.00 | 0.00 | 84 | 1024.2 |
| 20260509110457 | 13 | 119 | 0.0 | 1.6 | 0.00 | 0.00 | 0.00 | 84 | 1024.1 |
| 20260509110000 | 13 | 119 | 0.0 | 0.0 | 0.00 | 0.00 | 0.00 | 84 | 1024.0 |
| 20260509105501 | 14 | 119 | 0.0 | 0.0 | 0.00 | 0.00 | 0.00 | 84 | 1024.1 |
| 20260509105213 | 14 | 119 | 0.0 | 1.6 | 0.00 | 0.00 | 0.00 | 83 | 1024.0 |
| 20260509104450 | 14 | 119 | 0.0 | 1.6 | 0.00 | 0.00 | 0.00 | 83 | 1024.0 |
| 20260509103941 | 14 | 119 | 0.0 | 1.6 | 0.00 | 0.00 | 0.00 | 83 | 1024.0 |
| 20260509103443 | 14 | 119 | 0.0 | 1.6 | 0.00 | 0.00 | 0.00 | 82 | 1024.0 |
| 20260509102949 | 14 | 119 | 0.0 | 1.6 | 0.00 | 0.00 | 0.00 | 82 | 1024.0 |
| 20260509102437 | 14 | 119 | 0.0 | 0.0 | 0.00 | 0.00 | 0.00 | 81 | 1024.0 |
| 20260509101934 | 15 | 119 | 0.0 | 0.0 | 0.00 | 0.00 | 0.00 | 81 | 1024.0 |
| 20260509101421 | 15 | 119 | 0.0 | 1.6 | 0.00 | 0.00 | 0.00 | 81 | 1024.0 |
| 20260509101143 | 15 | 119 | 0.0 | 1.6 | 0.00 | 0.00 | 0.00 | 81 | 1023.9 |
| 20260509100425 | 15 | 119 | 0.0 | 1.6 | 0.00 | 0.00 | 0.00 | 80 | 1023.9 |
| 20260509095924 | 15 | 119 | 0.0 | 1.6 | 0.00 | 0.00 | 0.00 | 80 | 1023.9 |
| 20260509095430 | 15 | 119 | 0.0 | 1.6 | 0.00 | 0.00 | 0.00 | 80 | 1023.8 |
| 20260509094909 | 15 | 119 | 0.0 | 1.6 | 0.00 | 0.00 | 0.00 | 80 | 1023.8 |
| 20260509094408 | 15 | 119 | 0.0 | 1.6 | 0.00 | 0.00 | 0.00 | 79 | 1023.6 |
| 20260509093907 | 15 | 119 | 1.6 | 1.6 | 0.00 | 0.00 | 0.00 | 79 | 1023.6 |
| 20260509093410 | 16 | 119 | 1.6 | 1.6 | 0.00 | 0.00 | 0.00 | 78 | 1023.6 |
| 20260509092838 | 16 | 119 | 0.0 | 1.6 | 0.00 | 0.00 | 0.00 | 77 | 1023.5 |
| 20260509092358 | 16 | 119 | 0.0 | 1.6 | 0.00 | 0.00 | 0.00 | 76 | 1023.5 |
| 20260509091833 | 16 | 119 | 0.0 | 1.6 | 0.00 | 0.00 | 0.00 | 75 | 1023.5 |
| 20260509091545 | 16 | 119 | 0.0 | 1.6 | 0.00 | 0.00 | 0.00 | 75 | 1023.5 |
| 20260509091052 | 16 | 119 | 0.0 | 1.6 | 0.00 | 0.00 | 0.00 | 75 | 1023.4 |
| 20260509090322 | 16 | 119 | 1.6 | 1.6 | 0.00 | 0.00 | 0.00 | 74 | 1023.3 |
| 20260509090300 | 17 | 119 | 0.0 | 1.6 | 0.00 | 0.00 | 0.00 | 74 | 1023.3 |
| 20260509085318 | 17 | 119 | 0.0 | 1.6 | 0.00 | 0.00 | 0.00 | 73 | 1023.2 |
| 20260509084824 | 17 | 119 | 0.0 | 1.6 | 0.00 | 0.00 | 0.00 | 73 | 1023.2 |
| 20260509084311 | 17 | 119 | 0.0 | 1.6 | 0.00 | 0.00 | 0.00 | 72 | 1023.1 |
| 20260509083803 | 17 | 119 | 0.0 | 1.6 | 0.00 | 0.00 | 0.00 | 72 | 1023.1 |
| 20260509083311 | 17 | 119 | 0.0 | 1.6 | 0.00 | 0.00 | 0.00 | 71 | 1023.0 |
| 20260509082756 | 18 | 119 | 0.0 | 1.6 | 0.00 | 0.00 | 0.00 | 70 | 1023.0 |
| 20260509082257 | 18 | 119 | 0.0 | 1.6 | 0.00 | 0.00 | 0.00 | 69 | 1022.9 |
| 20260509081755 | 18 | 119 | 0.0 | 1.6 | 0.00 | 0.00 | 0.00 | 68 | 1022.9 |
| 20260509081318 | 18 | 119 | 0.0 | 1.6 | 0.00 | 0.00 | 0.00 | 68 | 1022.8 |
| 20260509080748 | 18 | 119 | 0.0 | 0.0 | 0.00 | 0.00 | 0.00 | 67 | 1022.7 |
| 20260509080302 | 19 | 119 | 0.0 | 0.0 | 0.00 | 0.00 | 0.00 | 67 | 1022.7 |
| 20260509075741 | 19 | 119 | 0.0 | 0.0 | 0.00 | 0.00 | 0.00 | 66 | 1022.7 |
| 20260509075214 | 19 | 119 | 0.0 | 0.0 | 0.00 | 0.00 | 0.00 | 64 | 1022.6 |
| 20260509074648 | 20 | 119 | 0.0 | 0.0 | 0.00 | 0.00 | 0.00 | 63 | 1022.5 |
| 20260509074148 | 20 | 119 | 0.0 | 0.0 | 0.00 | 0.00 | 0.00 | 63 | 1022.4 |
| 20260509073649 | 20 | 119 | 0.0 | 0.0 | 0.00 | 0.00 | 0.00 | 62 | 1022.4 |
| 20260509073418 | 20 | 119 | 0.0 | 0.0 | 0.00 | 0.00 | 0.00 | 62 | 1022.4 |
| 20260509072703 | 20 | 119 | 0.0 | 1.6 | 0.00 | 0.00 | 0.00 | 61 | 1022.3 |
| 20260509072121 | 20 | 119 | 0.0 | 1.6 | 0.00 | 0.00 | 0.00 | 60 | 1022.3 |
| 20260509071556 | 21 | 119 | 0.0 | 1.6 | 0.00 | 0.00 | 0.00 | 60 | 1022.2 |
| 20260509071103 | 21 | 119 | 0.0 | 1.6 | 0.00 | 0.00 | 0.00 | 60 | 1022.2 |
| 20260509070534 | 21 | 119 | 0.0 | 3.2 | 0.00 | 0.00 | 0.00 | 60 | 1022.2 |
| 20260509070323 | 21 | 119 | 0.0 | 3.2 | 0.00 | 0.00 | 0.00 | 59 | 1022.1 |
| 20260509065513 | 21 | 119 | 1.6 | 6.4 | 0.00 | 0.00 | 0.00 | 59 | 1022.0 |
| 20260509065444 | 21 | 119 | 1.6 | 6.4 | 0.00 | 0.00 | 0.00 | 58 | 1021.9 |
| 20260509064509 | 21 | 119 | 1.6 | 6.4 | 0.00 | 0.00 | 0.00 | 57 | 1021.8 |
| 20260509064215 | 22 | 119 | 3.2 | 8.0 | 0.00 | 0.00 | 0.00 | 55 | 1021.8 |
| 20260509063452 | 22 | 114 | 4.8 | 8.0 | 0.00 | 0.00 | 0.00 | 54 | 1021.8 |
| 20260509062948 | 22 | 114 | 4.8 | 8.0 | 0.00 | 0.00 | 0.00 | 52 | 1021.7 |
| 20260509062438 | 22 | 124 | 3.2 | 11.3 | 0.00 | 0.00 | 0.00 | 50 | 1021.6 |
| 20260509061936 | 22 | 126 | 3.2 | 11.3 | 0.00 | 0.00 | 0.00 | 50 | 1021.6 |
| 20260509061436 | 22 | 96 | 3.2 | 11.3 | 0.00 | 0.00 | 0.00 | 50 | 1021.6 |
| 20260509060936 | 23 | 108 | 4.8 | 14.5 | 0.00 | 0.00 | 0.00 | 50 | 1021.6 |
| 20260509060435 | 23 | 122 | 6.4 | 14.5 | 0.00 | 0.00 | 0.00 | 49 | 1021.5 |
| 20260509055946 | 23 | 126 | 6.4 | 14.5 | 0.00 | 0.00 | 0.00 | 48 | 1021.6 |
| 20260509055427 | 23 | 116 | 6.4 | 14.5 | 0.00 | 0.00 | 0.00 | 47 | 1021.4 |
| 20260509055132 | 23 | 120 | 6.4 | 14.5 | 0.00 | 0.00 | 0.00 | 47 | 1021.4 |
| 20260509054420 | 23 | 123 | 6.4 | 12.9 | 0.00 | 0.00 | 0.00 | 46 | 1021.4 |
| 20260509053851 | 23 | 150 | 6.4 | 12.9 | 0.00 | 0.00 | 0.00 | 45 | 1021.4 |
| 20260509053359 | 23 | 123 | 4.8 | 12.9 | 0.00 | 0.00 | 0.00 | 45 | 1021.4 |
| 20260509052830 | 23 | 117 | 3.2 | 12.9 | 0.00 | 0.00 | 0.00 | 47 | 1021.3 |
| 20260509052319 | 23 | 114 | 4.8 | 12.9 | 0.00 | 0.00 | 0.00 | 47 | 1021.3 |
| 20260509051818 | 23 | 120 | 4.8 | 12.9 | 0.00 | 0.00 | 0.00 | 46 | 1021.4 |
| 20260509051526 | 23 | 126 | 4.8 | 12.9 | 0.00 | 0.00 | 0.00 | 46 | 1021.3 |
| 20260509050800 | 24 | 118 | 6.4 | 14.5 | 0.00 | 0.00 | 0.00 | 46 | 1021.3 |
| 20260509050731 | 24 | 124 | 4.8 | 14.5 | 0.00 | 0.00 | 0.00 | 47 | 1021.2 |
| 20260509050354 | 24 | 106 | 4.8 | 14.5 | 0.00 | 0.00 | 0.00 | 46 | 1021.3 |
| 20260509045259 | 24 | 112 | 4.8 | 14.5 | 0.00 | 0.00 | 0.00 | 46 | 1021.2 |
| 20260509044739 | 24 | 121 | 4.8 | 14.5 | 0.00 | 0.00 | 0.00 | 45 | 1021.2 |
| 20260509044249 | 24 | 116 | 6.4 | 14.5 | 0.00 | 0.00 | 0.00 | 46 | 1021.3 |
| 20260509043709 | 25 | 120 | 4.8 | 12.9 | 0.00 | 0.00 | 0.00 | 46 | 1021.3 |
| 20260509043156 | 25 | 106 | 3.2 | 12.9 | 0.00 | 0.00 | 0.00 | 46 | 1021.3 |
| 20260509042656 | 25 | 180 | 4.8 | 16.1 | 0.00 | 0.00 | 0.00 | 47 | 1021.3 |
| 20260509042144 | 25 | 124 | 4.8 | 16.1 | 0.00 | 0.00 | 0.00 | 46 | 1021.3 |
| 20260509041845 | 25 | 127 | 4.8 | 14.5 | 0.00 | 0.00 | 0.00 | 47 | 1021.3 |
| 20260509041110 | 25 | 116 | 4.8 | 14.5 | 0.00 | 0.00 | 0.00 | 47 | 1021.2 |
| 20260509040820 | 24 | 142 | 6.4 | 16.1 | 0.00 | 0.00 | 0.00 | 47 | 1021.2 |
| 20260509040115 | 25 | 128 | 4.8 | 16.1 | 0.00 | 0.00 | 0.00 | 47 | 1021.2 |
| 20260509035553 | 24 | 116 | 6.4 | 19.3 | 0.00 | 0.00 | 0.00 | 47 | 1021.3 |
| 20260509035107 | 25 | 122 | 4.8 | 19.3 | 0.00 | 0.00 | 0.00 | 47 | 1021.3 |
| 20260509034548 | 24 | 111 | 4.8 | 17.7 | 0.00 | 0.00 | 0.00 | 47 | 1021.3 |
| 20260509034103 | 24 | 107 | 6.4 | 17.7 | 0.00 | 0.00 | 0.00 | 47 | 1021.3 |
| 20260509033557 | 24 | 110 | 6.4 | 16.1 | 0.00 | 0.00 | 0.00 | 47 | 1021.3 |
| 20260509033037 | 24 | 123 | 6.4 | 14.5 | 0.00 | 0.00 | 0.00 | 47 | 1021.4 |
| 20260509032536 | 24 | 122 | 6.4 | 14.5 | 0.00 | 0.00 | 0.00 | 47 | 1021.4 |
| 20260509032044 | 25 | 106 | 4.8 | 17.7 | 0.00 | 0.00 | 0.00 | 47 | 1021.4 |
| 20260509031527 | 25 | 111 | 4.8 | 17.7 | 0.00 | 0.00 | 0.00 | 48 | 1021.4 |
| 20260509031029 | 24 | 227 | 4.8 | 22.5 | 0.00 | 0.00 | 0.00 | 46 | 1021.4 |
| 20260509030743 | 24 | 156 | 6.4 | 22.5 | 0.00 | 0.00 | 0.00 | 47 | 1021.5 |
| 20260509030033 | 24 | 166 | 6.4 | 16.1 | 0.00 | 0.00 | 0.00 | 47 | 1021.5 |
| 20260509025502 | 24 | 162 | 6.4 | 16.1 | 0.00 | 0.00 | 0.00 | 48 | 1021.6 |
| 20260509024947 | 24 | 123 | 4.8 | 16.1 | 0.00 | 0.00 | 0.00 | 48 | 1021.6 |
| 20260509024721 | 24 | 114 | 4.8 | 16.1 | 0.00 | 0.00 | 0.00 | 48 | 1021.7 |
| 20260509023949 | 24 | 126 | 6.4 | 19.3 | 0.00 | 0.00 | 0.00 | 49 | 1021.7 |
| 20260509023442 | 24 | 110 | 6.4 | 19.3 | 0.00 | 0.00 | 0.00 | 48 | 1021.9 |
| 20260509022928 | 24 | 116 | 6.4 | 12.9 | 0.00 | 0.00 | 0.00 | 49 | 1021.9 |
| 20260509022428 | 24 | 115 | 4.8 | 12.9 | 0.00 | 0.00 | 0.00 | 49 | 1022.0 |
| 20260509021911 | 24 | 99 | 4.8 | 12.9 | 0.00 | 0.00 | 0.00 | 50 | 1022.0 |
| 20260509021336 | 24 | 122 | 6.4 | 14.5 | 0.00 | 0.00 | 0.00 | 50 | 1022.1 |
| 20260509020830 | 23 | 212 | 6.4 | 14.5 | 0.00 | 0.00 | 0.00 | 51 | 1022.2 |
| 20260509020550 | 23 | 163 | 4.8 | 14.5 | 0.00 | 0.00 | 0.00 | 52 | 1022.2 |
| 20260509015829 | 23 | 145 | 4.8 | 12.9 | 0.00 | 0.00 | 0.00 | 52 | 1022.3 |
| 20260509015315 | 23 | 135 | 4.8 | 12.9 | 0.00 | 0.00 | 0.00 | 53 | 1022.4 |
| 20260509014813 | 23 | 116 | 4.8 | 11.3 | 0.00 | 0.00 | 0.00 | 53 | 1022.4 |
| 20260509014327 | 22 | 134 | 3.2 | 8.0 | 0.00 | 0.00 | 0.00 | 55 | 1022.5 |
| 20260509013810 | 22 | 208 | 3.2 | 9.7 | 0.00 | 0.00 | 0.00 | 55 | 1022.6 |
| 20260509013320 | 22 | 189 | 4.8 | 9.7 | 0.00 | 0.00 | 0.00 | 55 | 1022.7 |
| 20260509012812 | 22 | 202 | 4.8 | 9.7 | 0.00 | 0.00 | 0.00 | 55 | 1022.7 |
| 20260509012309 | 22 | 180 | 4.8 | 11.3 | 0.00 | 0.00 | 0.00 | 55 | 1022.9 |
| 20260509011809 | 22 | 165 | 4.8 | 12.9 | 0.00 | 0.00 | 0.00 | 54 | 1022.9 |
| 20260509011538 | 22 | 175 | 4.8 | 12.9 | 0.00 | 0.00 | 0.00 | 54 | 1023.0 |
| 20260509010757 | 22 | 195 | 4.8 | 14.5 | 0.00 | 0.00 | 0.00 | 54 | 1023.1 |
| 20260509010302 | 22 | 108 | 4.8 | 14.5 | 0.00 | 0.00 | 0.00 | 55 | 1023.1 |
| 20260509005800 | 22 | 99 | 4.8 | 12.9 | 0.00 | 0.00 | 0.00 | 54 | 1023.1 |
| 20260509005300 | 22 | 159 | 3.2 | 12.9 | 0.00 | 0.00 | 0.00 | 54 | 1023.1 |
| 20260509005031 | 22 | 185 | 3.2 | 8.0 | 0.00 | 0.00 | 0.00 | 53 | 1023.2 |
| 20260509004521 | 22 | 161 | 3.2 | 8.0 | 0.00 | 0.00 | 0.00 | 53 | 1023.2 |
| 20260509003805 | 22 | 195 | 4.8 | 12.9 | 0.00 | 0.00 | 0.00 | 54 | 1023.3 |
| 20260509003253 | 21 | 175 | 6.4 | 14.5 | 0.00 | 0.00 | 0.00 | 53 | 1023.3 |
| 20260509002750 | 21 | 93 | 3.2 | 14.5 | 0.00 | 0.00 | 0.00 | 53 | 1023.3 |
| 20260509002250 | 21 | 192 | 3.2 | 12.9 | 0.00 | 0.00 | 0.00 | 55 | 1023.3 |
| 20260509001750 | 21 | 255 | 3.2 | 8.0 | 0.00 | 0.00 | 0.00 | 55 | 1023.3 |
| 20260509001252 | 21 | 215 | 3.2 | 8.0 | 0.00 | 0.00 | 0.00 | 58 | 1023.4 |
| 20260509000730 | 21 | 122 | 4.8 | 8.0 | 0.00 | 0.00 | 0.00 | 58 | 1023.4 |
| 20260509000223 | 21 | 236 | 4.8 | 9.7 | 0.00 | 0.00 | 0.00 | 59 | 1023.3 |
| 20260508235658 | 20 | 185 | 4.8 | 9.7 | 0.00 | 0.00 | 0.00 | 59 | 1023.3 |
| 20260508235204 | 20 | 246 | 3.2 | 9.7 | 0.00 | 0.00 | 0.00 | 61 | 1023.4 |
| 20260508234648 | 20 | 196 | 3.2 | 6.4 | 0.00 | 0.00 | 0.00 | 64 | 1023.4 |
| 20260508234136 | 19 | 157 | 3.2 | 6.4 | 0.00 | 0.00 | 0.00 | 63 | 1023.4 |
| 20260508233609 | 18 | 203 | 3.2 | 6.4 | 0.00 | 0.00 | 0.00 | 64 | 1023.4 |
| 20260508233109 | 18 | 202 | 3.2 | 6.4 | 0.00 | 0.00 | 0.00 | 66 | 1023.4 |
| 20260508232617 | 17 | 238 | 3.2 | 6.4 | 0.00 | 0.00 | 0.00 | 67 | 1023.3 |
| 20260508232105 | 17 | 238 | 3.2 | 8.0 | 0.00 | 0.00 | 0.00 | 67 | 1023.3 |
| 20260508231749 | 17 | 245 | 3.2 | 8.0 | 0.00 | 0.00 | 0.00 | 68 | 1023.2 |
| 20260508231006 | 16 | 199 | 3.2 | 6.4 | 0.00 | 0.00 | 0.00 | 68 | 1023.2 |
| 20260508230509 | 16 | 246 | 3.2 | 12.9 | 0.00 | 0.00 | 0.00 | 69 | 1023.1 |
| 20260508230008 | 15 | 249 | 4.8 | 12.9 | 0.00 | 0.00 | 0.00 | 69 | 1023.1 |
| 20260508225502 | 15 | 211 | 4.8 | 14.5 | 0.00 | 0.00 | 0.00 | 69 | 1023.1 |